Huntington, WV

5:27 PM EDT on May 23, 2017 (GMT -0400)
Tri-State / Ferguson

Weather History for KHTS - November, 2011

Change the Weather History Date:

Saturday, November 19, 2011

  Actual Average Record
Temperature  
Mean Temperature 46 °F 46 °F  
Max Temperature 64 °F 55 °F 78 °F (1985)
Min Temperature 28 °F 36 °F 12 °F (2014)
Degree Days  
Heating Degree Days 19 19  
Month to date heating degree days 290 310  
Since 1 July heating degree days 663 649  
Cooling Degree Days 0 0  
Month to date cooling degree days 3 0  
Year to date cooling degree days 1242 1132  
Moisture  
Dew Point 33 °F    
Average Humidity 63    
Maximum Humidity 85    
Minimum Humidity 40    
Precipitation  
Precipitation 0.01 in 0.13 in 1.93 in (1988)
Month to date precipitation 2.17 2.15  
Year to date precipitation 55.10 37.99  
Snow  
Snow 0.00 in - - ()
Month to date snowfall 0.0  
Since 1 September snowfall 0.0  
Snow Depth 0.00 in    
Sea Level Pressure  
Sea Level Pressure 30.21 in    
Wind  
Wind Speed 6 mph (South)    
Max Wind Speed 17 mph    
Max Gust Speed 25 mph    
Visibility 10 miles    
Events      
T = Trace of Precipitation, MM = Missing Value Source: NWS Daily Summary

Daily Weather History Graph

Daily Weather History Graph

Search for Another Location

Airport or City:

Trip Planner

Search our weather history database for the weather conditions in past years. The results will help you decide how hot, cold, wet, or windy it might be!

Date:

Astronomy

Nov. 19, 2011 Rise Set
Actual Time 7:15 AM EST 5:15 PM EST
Civil Twilight 6:47 AM EST 5:43 PM EST
Nautical Twilight 6:15 AM EST 6:15 PM EST
Astronomical Twilight 5:43 AM EST 6:47 PM EST
Moon 12:40 AM EST (11/19) 1:27 PM EST (11/19)
Length of Visible Light 10h 56m
Length of Day
9h 59m
Last Quarter, 38% of the Moon is Illuminated
Nov 19
Last Quarter
Nov 25
New
Dec 2
First Quarter
Dec 10
Full
Dec 17
Last Quarter

Hourly Weather History & Observations

Time (EST) Temp. Windchill Dew Point Humidity Pressure Visibility Wind Dir Wind Speed Gust Speed Precip Events Conditions
12:51 AM 34.0 °F - 21.9 °F 61% 30.23 in 10.0 mi Calm Calm - N/A   Clear
1:51 AM 32.0 °F - 23.0 °F 69% 30.25 in 10.0 mi Calm Calm - N/A   Clear
2:51 AM 36.0 °F 33.3 °F 21.9 °F 57% 30.24 in 10.0 mi SSW 3.5 mph - N/A   Clear
3:51 AM 35.1 °F - 21.9 °F 59% 30.24 in 10.0 mi Calm Calm - N/A   Clear
4:51 AM 33.1 °F - 23.0 °F 66% 30.26 in 10.0 mi Calm Calm - N/A   Clear
5:51 AM 28.9 °F - 24.1 °F 82% 30.29 in 10.0 mi Calm Calm - N/A   Clear
6:51 AM 28.0 °F 24.2 °F 24.1 °F 85% 30.30 in 10.0 mi SSE 3.5 mph - N/A   Clear
7:51 AM 32.0 °F 27.5 °F 23.0 °F 69% 30.31 in 10.0 mi SSE 4.6 mph - N/A   Clear
8:51 AM 39.0 °F - 28.0 °F 65% 30.31 in 10.0 mi Calm Calm - 0.01 in   Clear
9:51 AM 46.9 °F - 27.0 °F 46% 30.30 in 10.0 mi SSW 4.6 mph - N/A   Clear
10:51 AM 51.1 °F - 28.9 °F 43% 30.29 in 10.0 mi SSW 9.2 mph - N/A   Clear
11:51 AM 55.0 °F - 33.1 °F 43% 30.26 in 10.0 mi South 10.4 mph - N/A   Clear
12:51 PM 59.0 °F - 37.0 °F 44% 30.19 in 10.0 mi South 12.7 mph 20.7 mph N/A   Clear
1:51 PM 61.0 °F - 39.0 °F 44% 30.16 in 10.0 mi South 15.0 mph 19.6 mph N/A   Clear
2:51 PM 64.0 °F - 39.9 °F 41% 30.14 in 10.0 mi SSW 8.1 mph - N/A   Clear
3:51 PM 63.0 °F - 39.9 °F 43% 30.13 in 10.0 mi South 8.1 mph - N/A   Clear
4:51 PM 62.1 °F - 39.9 °F 44% 30.13 in 10.0 mi SSW 5.8 mph - N/A   Clear
5:51 PM 59.0 °F - 39.9 °F 49% 30.13 in 10.0 mi South 5.8 mph - N/A   Partly Cloudy
6:51 PM 60.1 °F - 42.1 °F 51% 30.13 in 10.0 mi South 11.5 mph 18.4 mph N/A   Scattered Clouds
7:51 PM 60.1 °F - 43.0 °F 53% 30.12 in 10.0 mi South 9.2 mph 18.4 mph N/A   Clear
8:51 PM 60.1 °F - 43.0 °F 53% 30.13 in 10.0 mi South 8.1 mph - N/A   Partly Cloudy
9:51 PM 57.9 °F - 43.0 °F 58% 30.13 in 10.0 mi South 8.1 mph - N/A   Clear
10:51 PM 57.9 °F - 43.0 °F 58% 30.13 in 10.0 mi SSW 5.8 mph - N/A   Clear
11:51 PM 57.9 °F - 43.0 °F 58% 30.12 in 10.0 mi South 8.1 mph - N/A   Mostly Cloudy